Weather History for KCQF - December, 2012

Change the Weather History Date:

Friday, December 21, 2012

  Actual Average (KBFM) Record (KBFM)
Temperature  
Mean Temperature 49 °F -  
Max Temperature 57 °F 57 °F 73 °F (1998)
Min Temperature 41 °F 38 °F 32 °F (2005)
Degree Days  
Heating Degree Days 16    
Moisture  
Dew Point 23 °F    
Average Humidity 38    
Maximum Humidity 49    
Minimum Humidity 23    
Precipitation  
Precipitation 0.00 in - - ()
Sea Level Pressure  
Sea Level Pressure 30.30 in    
Wind  
Wind Speed 12 mph (NW)    
Max Wind Speed 20 mph    
Max Gust Speed 29 mph    
Visibility 10 miles    
Events      
Averages and records for this station are not official NWS values.
T = Trace of Precipitation, MM = Missing Value Source: NWS Daily Summary

Daily Weather History Graph

Daily Weather History Graph

Search for Another Location

Airport or City:

Trip Planner

Search our weather history database for the weather conditions in past years. The results will help you decide how hot, cold, wet, or windy it might be!

Date:

Astronomy

Dec. 21, 2012 Rise Set
Actual Time 6:44 AM CST 4:55 PM CST
Civil Twilight 6:18 AM CST 5:21 PM CST
Nautical Twilight 5:47 AM CST 5:51 PM CST
Astronomical Twilight 5:18 AM CST 6:21 PM CST
Moon 12:26 PM CST (12/21) 12:48 AM CST (12/21)
Length of Visible Light 11h 03m
Length of Day
10h 10m
Waxing Gibbous, 65% of the Moon is Illuminated
Dec 21
Waxing Gibbous
Dec 28
Full
Jan 4
Last Quarter
Jan 11
New
Jan 18
First Quarter

Hourly Weather History & Observations

Time (CST) Temp. Windchill Dew Point Humidity Pressure Visibility Wind Dir Wind Speed Gust Speed Precip Events Conditions
12:15 AM 48.2 °F - 28.4 °F 46% 30.22 in 10.0 mi WNW 12.7 mph 23.0 mph N/A   Clear
12:35 AM 48.2 °F - 28.4 °F 46% 30.22 in 10.0 mi NW 13.8 mph 23.0 mph N/A   Clear
12:55 AM 46.4 °F 39.0 °F 26.6 °F 46% 30.23 in 10.0 mi NW 19.6 mph 25.3 mph N/A   Clear
1:15 AM 46.4 °F 40.7 °F 26.6 °F 46% 30.23 in 10.0 mi WNW 12.7 mph 21.9 mph N/A   Clear
1:55 AM 46.4 °F 41.1 °F 24.8 °F 43% 30.23 in 10.0 mi NW 11.5 mph 23.0 mph N/A   Clear
2:15 AM 46.4 °F 40.4 °F 23.0 °F 40% 30.23 in 10.0 mi NW 13.8 mph 23.0 mph N/A   Clear
2:35 AM 46.4 °F 40.4 °F 23.0 °F 40% 30.23 in 10.0 mi WNW 13.8 mph 27.6 mph N/A   Clear
2:55 AM 44.6 °F 37.8 °F 23.0 °F 43% 30.24 in 10.0 mi NW 15.0 mph 26.5 mph N/A   Clear
3:15 AM 44.6 °F 38.4 °F 23.0 °F 43% 30.24 in 10.0 mi NW 12.7 mph 19.6 mph N/A   Clear
3:35 AM 44.6 °F 38.1 °F 23.0 °F 43% 30.25 in 10.0 mi NW 13.8 mph 24.2 mph N/A   Clear
3:55 AM 44.6 °F 36.9 °F 21.2 °F 39% 30.25 in 10.0 mi NW 18.4 mph 28.8 mph N/A   Clear
4:15 AM 44.6 °F 39.2 °F 21.2 °F 39% 30.25 in 10.0 mi NW 10.4 mph 21.9 mph N/A   Clear
4:35 AM 42.8 °F 35.8 °F 23.0 °F 46% 30.25 in 10.0 mi NW 13.8 mph 23.0 mph N/A   Clear
4:55 AM 42.8 °F 36.6 °F 23.0 °F 46% 30.26 in 10.0 mi NW 11.5 mph 18.4 mph N/A   Clear
5:15 AM 42.8 °F 35.8 °F 23.0 °F 46% 30.26 in 10.0 mi NW 13.8 mph - N/A   Clear
5:55 AM 42.8 °F 36.6 °F 23.0 °F 46% 30.28 in 10.0 mi NW 11.5 mph 20.7 mph N/A   Clear
6:15 AM 42.8 °F 37.0 °F 23.0 °F 46% 30.29 in 10.0 mi WNW 10.4 mph 21.9 mph N/A   Clear
6:35 AM 42.8 °F 36.2 °F 23.0 °F 46% 30.30 in 10.0 mi WNW 12.7 mph 18.4 mph N/A   Clear
6:55 AM 41.0 °F 34.7 °F 23.0 °F 49% 30.31 in 7.0 mi WNW 10.4 mph 23.0 mph N/A   Clear
7:15 AM 42.8 °F 36.6 °F 23.0 °F 46% 30.32 in 10.0 mi NW 11.5 mph - N/A   Clear
7:35 AM 42.8 °F 36.2 °F 23.0 °F 46% 30.33 in 10.0 mi NW 12.7 mph 19.6 mph N/A   Clear
7:55 AM 42.8 °F 36.2 °F 23.0 °F 46% 30.33 in 10.0 mi NW 12.7 mph 23.0 mph N/A   Clear
8:15 AM 44.6 °F 38.4 °F 23.0 °F 43% 30.34 in 7.0 mi NW 12.7 mph 18.4 mph N/A   Clear
8:35 AM 44.6 °F 38.4 °F 23.0 °F 43% 30.34 in 10.0 mi NW 12.7 mph 23.0 mph N/A   Clear
8:55 AM 44.6 °F 37.8 °F 23.0 °F 43% 30.35 in 10.0 mi NW 15.0 mph 20.7 mph N/A   Clear
9:15 AM 46.4 °F 40.7 °F 21.2 °F 37% 30.35 in 10.0 mi NNW 12.7 mph 19.6 mph N/A   Clear
9:35 AM 46.4 °F 40.1 °F 21.2 °F 37% 30.36 in 10.0 mi NNW 15.0 mph 23.0 mph N/A   Clear
9:55 AM 46.4 °F 40.4 °F 21.2 °F 37% 30.35 in 7.0 mi NNW 13.8 mph 25.3 mph N/A   Clear
10:15 AM 48.2 °F - 23.0 °F 37% 30.35 in 7.0 mi NW 11.5 mph 17.3 mph N/A   Clear
10:35 AM 50.0 °F - 19.4 °F 30% 30.35 in 10.0 mi NW 13.8 mph 20.7 mph N/A   Clear
10:55 AM 50.0 °F - 21.2 °F 32% 30.34 in 7.0 mi NW 10.4 mph 21.9 mph N/A   Clear
11:15 AM 51.8 °F - 19.4 °F 28% 30.34 in 10.0 mi NW 11.5 mph 18.4 mph N/A   Clear
11:35 AM 51.8 °F - 19.4 °F 28% 30.32 in 10.0 mi WNW 11.5 mph 18.4 mph N/A   Clear
11:55 AM 51.8 °F - 19.4 °F 28% 30.30 in 10.0 mi NNW 10.4 mph 19.6 mph N/A   Clear
12:15 PM 51.8 °F - 17.6 °F 26% 30.29 in 7.0 mi NW 11.5 mph 23.0 mph N/A   Clear
12:55 PM 53.6 °F - 19.4 °F 26% 30.28 in 10.0 mi NNW 13.8 mph 20.7 mph N/A   Clear
1:15 PM 55.4 °F - 19.4 °F 25% 30.26 in 10.0 mi NNW 16.1 mph 19.6 mph N/A   Clear
1:35 PM 55.4 °F - 19.4 °F 25% 30.26 in 10.0 mi NW 16.1 mph 21.9 mph N/A   Clear
1:55 PM 55.4 °F - 17.6 °F 23% 30.26 in 10.0 mi NNW 13.8 mph 21.9 mph N/A   Clear
2:15 PM 55.4 °F - 19.4 °F 25% 30.26 in 10.0 mi NW 13.8 mph 18.4 mph N/A   Clear
2:35 PM 55.4 °F - 19.4 °F 25% 30.26 in 10.0 mi NW 11.5 mph 17.3 mph N/A   Clear
2:55 PM 57.2 °F - 19.4 °F 23% 30.26 in 7.0 mi NW 11.5 mph 18.4 mph N/A   Clear
3:15 PM 55.4 °F - 19.4 °F 25% 30.26 in 10.0 mi NW 10.4 mph 17.3 mph N/A   Clear
3:35 PM 55.4 °F - 21.2 °F 26% 30.26 in 7.0 mi NW 9.2 mph - N/A   Clear
4:15 PM 55.4 °F - 21.2 °F 26% 30.26 in 7.0 mi NW 10.4 mph - N/A   Clear
4:35 PM 53.6 °F - 23.0 °F 30% 30.26 in 10.0 mi WNW 6.9 mph - N/A   Clear
4:55 PM 53.6 °F - 23.0 °F 30% 30.26 in 10.0 mi WNW 8.1 mph - N/A   Clear
5:15 PM 51.8 °F - 23.0 °F 33% 30.27 in 10.0 mi WNW 5.8 mph - N/A   Clear
5:35 PM 51.8 °F - 23.0 °F 33% 30.28 in 10.0 mi WNW 8.1 mph - N/A   Clear
5:55 PM 51.8 °F - 23.0 °F 33% 30.29 in 10.0 mi WNW 9.2 mph - N/A   Clear
6:15 PM 51.8 °F - 23.0 °F 33% 30.30 in 10.0 mi WNW 9.2 mph 16.1 mph N/A   Clear
6:55 PM 51.8 °F - 23.0 °F 33% 30.31 in 10.0 mi NW 9.2 mph - N/A   Clear
7:15 PM 51.8 °F - 23.0 °F 33% 30.32 in 7.0 mi NW 8.1 mph - N/A   Clear
7:35 PM 50.0 °F - 24.8 °F 37% 30.32 in 7.0 mi WNW 6.9 mph - N/A   Clear
7:55 PM 50.0 °F - 24.8 °F 37% 30.33 in 10.0 mi NW 6.9 mph - N/A   Clear
8:15 PM 50.0 °F - 24.8 °F 37% 30.34 in 10.0 mi WNW 6.9 mph - N/A   Clear
8:35 PM 50.0 °F - 24.8 °F 37% 30.34 in 10.0 mi WNW 6.9 mph - N/A   Clear
8:55 PM 48.2 °F - 26.6 °F 43% 30.35 in 10.0 mi WNW 5.8 mph - N/A   Clear
9:15 PM 48.2 °F - 24.8 °F 40% 30.35 in 10.0 mi NW 6.9 mph - N/A   Clear
9:35 PM 48.2 °F - 23.0 °F 37% 30.35 in 10.0 mi NW 6.9 mph - N/A   Clear
9:55 PM 46.4 °F 42.9 °F 24.8 °F 43% 30.36 in 10.0 mi NW 6.9 mph - N/A   Clear
10:15 PM 46.4 °F 42.9 °F 26.6 °F 46% 30.37 in 7.0 mi NW 6.9 mph - N/A   Clear
10:35 PM 46.4 °F 42.9 °F 26.6 °F 46% 30.37 in 10.0 mi NW 6.9 mph - N/A   Clear
10:55 PM 44.6 °F 40.2 °F 26.6 °F 49% 30.37 in 10.0 mi NW 8.1 mph - N/A   Clear
11:15 PM 44.6 °F 40.2 °F 24.8 °F 46% 30.37 in 10.0 mi NNW 8.1 mph - N/A   Clear
11:35 PM 44.6 °F 40.2 °F 24.8 °F 46% 30.36 in 10.0 mi NNW 8.1 mph - N/A   Clear
11:55 PM 44.6 °F 39.7 °F 24.8 °F 46% 30.36 in 10.0 mi NNW 9.2 mph - N/A   Clear